Location: Bussy-Saint-Georges
(48.8410°N, 2.7017°E)
Time: 16:12:26
(UTC+00:00)

Orbus 7S? - Pass Details

Date: 18 October 2021
Orbit: 328 x 6409 km, 56.9° (Epoch: 01 November)

Event Time Altitude Azimuth Distance (km) Brightness Sun altitude
Rises 19:21:58 0° 303° (WNW) 5,849 9.7 -25.0°
Reaches altitude 10° 19:26:58 10° 304° (NW) 3,899 8.5 -25.8°
Enters shadow 19:35:13 87° 286° (WNW) 785 3.9 -27.1°
